• In Belarus
  • List of Countries
  • For 7 days
  • Water Temperature
  • Weather Map
  • Weather Widgets
  • user-avatar
    Login

    Hourly Weather Melissia

    Today, 25 May, Monday

    Time Temperature Precipitation Wind Pressure Humidity
    00:00 +20°C° 0 mm 1 mps 740 mmHg 63%
    01:00 +20°C° 0 mm 1 mps 739 mmHg 64%
    02:00 +19°C° 0 mm 1 mps 739 mmHg 64%
    03:00 +18°C° 0 mm 2 mps 739 mmHg 66%
    04:00 +18°C° 0 mm 2 mps 739 mmHg 67%
    05:00 +18°C° 0 mm 3 mps 739 mmHg 68%
    06:00 +18°C° 0 mm 3 mps 740 mmHg 65%
    07:00 +19°C° 0 mm 4 mps 740 mmHg 62%
    08:00 +20°C° 0 mm 4 mps 740 mmHg 58%
    09:00 +21°C° 0 mm 4 mps 740 mmHg 58%
    10:00 +21°C° 0 mm 5 mps 741 mmHg 58%
    11:00 +22°C° 0 mm 5 mps 741 mmHg 58%
    12:00 +22°C° 0 mm 6 mps 741 mmHg 58%
    13:00 +21°C° 0 mm 6 mps 740 mmHg 58%
    14:00 +21°C° 0 mm 7 mps 740 mmHg 58%
    15:00 +21°C° 0 mm 7 mps 740 mmHg 58%
    16:00 +20°C° 0 mm 6 mps 740 mmHg 58%
    17:00 +20°C° 0 mm 6 mps 740 mmHg 58%
    18:00 +19°C° 0.1 mm 5 mps 740 mmHg 59%
    19:00 +19°C° 0.1 mm 4 mps 739 mmHg 60%
    20:00 +18°C° 0.1 mm 3 mps 739 mmHg 62%
    21:00 +18°C° 0.1 mm 3 mps 739 mmHg 63%
    22:00 +18°C° 0.1 mm 2 mps 740 mmHg 64%
    23:00 +17°C° 0.1 mm 2 mps 740 mmHg 66%

    Tomorrow, 26 May, Tuesday

    Time Temperature Precipitation Wind Pressure Humidity
    00:00 +17°C° 0 mm 2 mps 739 mmHg 67%
    01:00 +17°C° 0 mm 3 mps 739 mmHg 68%
    02:00 +17°C° 0 mm 3 mps 739 mmHg 69%
    03:00 +17°C° 0 mm 3 mps 739 mmHg 69%
    04:00 +16°C° 0 mm 2 mps 738 mmHg 69%
    05:00 +16°C° 0 mm 2 mps 738 mmHg 69%
    06:00 +17°C° 0 mm 2 mps 738 mmHg 65%
    07:00 +18°C° 0 mm 3 mps 739 mmHg 61%
    08:00 +18°C° 0 mm 3 mps 739 mmHg 57%
    09:00 +19°C° 0 mm 3 mps 739 mmHg 54%
    10:00 +20°C° 0 mm 2 mps 739 mmHg 51%
    11:00 +21°C° 0 mm 2 mps 739 mmHg 47%
    12:00 +21°C° 0.4 mm 2 mps 739 mmHg 48%
    13:00 +21°C° 0.4 mm 2 mps 738 mmHg 49%
    14:00 +21°C° 0.4 mm 3 mps 738 mmHg 50%
    15:00 +20°C° 0.8 mm 3 mps 738 mmHg 54%
    16:00 +19°C° 0.8 mm 3 mps 737 mmHg 59%
    17:00 +18°C° 0.8 mm 3 mps 737 mmHg 63%
    18:00 +17°C° 1 mm 3 mps 737 mmHg 67%
    19:00 +16°C° 1 mm 3 mps 737 mmHg 70%
    20:00 +16°C° 1 mm 2 mps 737 mmHg 73%
    21:00 +15°C° 0.1 mm 2 mps 737 mmHg 72%
    22:00 +15°C° 0.1 mm 2 mps 737 mmHg 72%
    23:00 +15°C° 0.1 mm 2 mps 737 mmHg 72%

    Day after tomorrow, 27 May, Wednesday

    Time Temperature Precipitation Wind Pressure Humidity
    00:00 +15°C° 0.1 mm 2 mps 737 mmHg 73%
    01:00 +15°C° 0.1 mm 2 mps 736 mmHg 74%
    02:00 +15°C° 0.1 mm 2 mps 736 mmHg 75%
    03:00 +14°C° 0.3 mm 3 mps 736 mmHg 76%
    04:00 +13°C° 0.3 mm 3 mps 736 mmHg 77%
    05:00 +13°C° 0.3 mm 3 mps 736 mmHg 79%
    06:00 +14°C° 0.3 mm 4 mps 736 mmHg 76%
    07:00 +14°C° 0.3 mm 4 mps 737 mmHg 73%
    08:00 +15°C° 0.3 mm 5 mps 737 mmHg 70%
    09:00 +15°C° 0.2 mm 5 mps 737 mmHg 67%
    10:00 +15°C° 0.2 mm 5 mps 738 mmHg 64%
    11:00 +16°C° 0.2 mm 5 mps 738 mmHg 60%
    12:00 +17°C° 0.1 mm 6 mps 738 mmHg 58%
    13:00 +17°C° 0.1 mm 6 mps 738 mmHg 57%
    14:00 +19°C° 0.1 mm 6 mps 738 mmHg 55%
    15:00 +19°C° 0 mm 6 mps 738 mmHg 53%
    16:00 +19°C° 0 mm 6 mps 738 mmHg 52%
    17:00 +19°C° 0 mm 6 mps 738 mmHg 51%
    18:00 +17°C° 0 mm 6 mps 738 mmHg 54%
    19:00 +16°C° 0 mm 5 mps 738 mmHg 57%
    20:00 +17°C° 0 mm 4 mps 738 mmHg 61%
    21:00 +15°C° 0 mm 4 mps 738 mmHg 62%
    22:00 +15°C° 0 mm 4 mps 738 mmHg 63%
    23:00 +14°C° 0 mm 3 mps 738 mmHg 64%

    28 May, Thursday

    Time Temperature Precipitation Wind Pressure Humidity
    00:00 +14°C° 0 mm 3 mps 738 mmHg 64%
    01:00 +14°C° 0 mm 3 mps 738 mmHg 65%
    02:00 +14°C° 0 mm 3 mps 738 mmHg 65%
    03:00 +14°C° 0 mm 3 mps 738 mmHg 66%
    04:00 +15°C° 0 mm 2 mps 738 mmHg 67%
    05:00 +14°C° 0 mm 2 mps 737 mmHg 68%
    06:00 +16°C° 0 mm 3 mps 738 mmHg 64%
    07:00 +17°C° 0 mm 3 mps 738 mmHg 61%
    08:00 +18°C° 0 mm 4 mps 738 mmHg 58%
    09:00 +19°C° 0.2 mm 4 mps 738 mmHg 56%
    10:00 +20°C° 0.2 mm 4 mps 739 mmHg 53%
    11:00 +20°C° 0.2 mm 4 mps 739 mmHg 51%
    12:00 +21°C° 0.3 mm 4 mps 739 mmHg 50%
    13:00 +21°C° 0.3 mm 3 mps 738 mmHg 48%
    14:00 +22°C° 0.3 mm 3 mps 738 mmHg 46%
    15:00 +21°C° 0.1 mm 3 mps 738 mmHg 47%
    16:00 +21°C° 0.1 mm 3 mps 738 mmHg 47%
    17:00 +21°C° 0.1 mm 3 mps 737 mmHg 47%
    18:00 +20°C° 0.2 mm 3 mps 737 mmHg 53%
    19:00 +19°C° 0.2 mm 2 mps 737 mmHg 58%
    20:00 +19°C° 0.2 mm 1 mps 737 mmHg 63%
    21:00 +19°C° 0 mm 1 mps 737 mmHg 64%
    22:00 +19°C° 0 mm 1 mps 737 mmHg 65%
    23:00 +18°C° 0 mm 1 mps 737 mmHg 67%

    29 May, Friday

    Time Temperature Precipitation Wind Pressure Humidity
    00:00 +18°C° 0 mm 1 mps 737 mmHg 67%
    01:00 +18°C° 0 mm 1 mps 737 mmHg 68%
    02:00 +17°C° 0 mm 2 mps 736 mmHg 68%
    03:00 +16°C° 0 mm 2 mps 736 mmHg 69%
    04:00 +16°C° 0 mm 2 mps 736 mmHg 69%
    05:00 +16°C° 0 mm 2 mps 736 mmHg 69%
    06:00 +17°C° 0 mm 2 mps 737 mmHg 64%
    07:00 +18°C° 0 mm 2 mps 737 mmHg 59%
    08:00 +20°C° 0 mm 2 mps 737 mmHg 54%
    09:00 +20°C° 0 mm 2 mps 738 mmHg 50%
    10:00 +21°C° 0 mm 2 mps 738 mmHg 46%
    11:00 +23°C° 0 mm 2 mps 738 mmHg 41%
    12:00 +24°C° 0 mm 2 mps 738 mmHg 40%
    13:00 +24°C° 0 mm 2 mps 738 mmHg 39%
    14:00 +25°C° 0 mm 2 mps 738 mmHg 38%
    15:00 +24°C° 0 mm 3 mps 737 mmHg 41%
    16:00 +23°C° 0 mm 4 mps 737 mmHg 44%
    17:00 +22°C° 0 mm 4 mps 737 mmHg 47%
    18:00 +22°C° 0 mm 4 mps 737 mmHg 51%
    19:00 +21°C° 0 mm 3 mps 737 mmHg 56%
    20:00 +20°C° 0 mm 3 mps 737 mmHg 60%
    21:00 +19°C° 0 mm 2 mps 737 mmHg 63%
    22:00 +19°C° 0 mm 2 mps 737 mmHg 66%
    23:00 +19°C° 0 mm 2 mps 738 mmHg 68%

    30 May, Saturday

    Time Temperature Precipitation Wind Pressure Humidity
    00:00 +18°C° 0 mm 2 mps 737 mmHg 70%
    01:00 +18°C° 0 mm 2 mps 737 mmHg 72%
    02:00 +19°C° 0 mm 1 mps 737 mmHg 74%
    03:00 +19°C° 0 mm 1 mps 737 mmHg 75%
    04:00 +19°C° 0 mm 1 mps 737 mmHg 76%
    05:00 +18°C° 0 mm 1 mps 737 mmHg 77%
    06:00 +19°C° 0 mm 1 mps 737 mmHg 71%
    07:00 +20°C° 0 mm 1 mps 737 mmHg 65%
    08:00 +21°C° 0 mm 1 mps 738 mmHg 59%
    09:00 +22°C° 0 mm 1 mps 738 mmHg 56%
    10:00 +23°C° 0 mm 2 mps 738 mmHg 52%
    11:00 +24°C° 0 mm 2 mps 738 mmHg 49%
    12:00 +24°C° 0 mm 3 mps 738 mmHg 48%
    13:00 +24°C° 0 mm 3 mps 738 mmHg 47%
    14:00 +25°C° 0 mm 4 mps 738 mmHg 47%
    15:00 +23°C° 0 mm 4 mps 738 mmHg 48%
    16:00 +23°C° 0 mm 4 mps 737 mmHg 49%
    17:00 +23°C° 0 mm 4 mps 737 mmHg 50%
    18:00 +22°C° 0 mm 4 mps 737 mmHg 55%
    19:00 +21°C° 0 mm 3 mps 737 mmHg 59%
    20:00 +20°C° 0 mm 2 mps 737 mmHg 63%
    21:00 +20°C° 0 mm 2 mps 737 mmHg 64%
    22:00 +20°C° 0 mm 2 mps 737 mmHg 66%
    23:00 +19°C° 0 mm 2 mps 737 mmHg 67%
    Show more